Location: Unspecified
(40.9447°N, 78.9903°W)
Time: 22:34:40
(UTC-04:00)

Hubble Space Telescope - Pass Details

Date: 28 July 2021
Orbit: 535 x 539 km, 28.5° (Epoch: 22 September)

Event Time Altitude Azimuth Distance (km) Brightness Sun altitude
Rises 22:21:17 0° 245° (WSW) 2,666 4.6 -17.0°
Reaches altitude 10° 22:25:23 10° 205° (SSW) 1,773 3.2 -17.6°
Enters shadow 22:25:26 10° 204° (SSW) 1,770 3.2 -17.6°
